Location: Hylvaty SDH
(49.9612°N, 16.4057°E)
Time: 20:28:42
(UTC+01:00)

Vanguard 1 Rocket - Pass Details

Date: 03 October 2020
Orbit: 656 x 4221 km, 34.3° (Epoch: 30 October)

Event Time Altitude Azimuth Distance (km) Brightness Sun altitude
Rises 21:56:42 0° 269° (W) 6,025 12.2 -32.5°
Reaches altitude 10° 22:00:24 10° 261° (W) 5,432 11.8 -33.0°
Maximum altitude 22:16:15 40° 201° (SSW) 4,753 10.7 -34.9°
Enters shadow 22:22:19 36° 175° (S) 5,257 10.8 -35.6°
Drops below altitude 10° 22:38:28 10° 143° (SE) 7,409 - -37.4°
Sets 22:44:48 0° 137° (SE) 8,332 - -38.1°
